EHI
28 19 7 1 0 0 0 0 0 0 0 0 0 0 0 0 0 0 0 0 0 0 0 0 0 0 0 0 0 0 0 0 0 0 0 0 0 0 0 0 0 0 0 0 0 1 1 1 2
17 11 3 0 0 0 0 0 0 0 0 0 0 0 0 0 0 0 0 0 0 0 0 0 0 0 0 0 0 0 0 0 0 0 0 0 0 0 0 0 0 0 0 0 0 0 0 1 2
8 3 0 0 0 0 0 0 0 0 0 0 0 0 0 0 0 0 0 0 0 0 0 0 0 0 0 0 0 0 0 0 0 0 0 0 0 0 0 0 0 0 0 0 0 0 0 0 1
3 1 0 0 0 0 0 0 0 0 0 0 0 0 0 0 0 0 0 0 0 0 0 0 0 0 0 0 0 0 0 0 0 0 0 0 0 0 0 0 0 0 0 0 0 0 0 0 0
0 0 0 0 0 0 0 0 0 0 0 0 0 0 0 0 0 0 0 0 0 0 0 2 4 4 2 1 1 0 0 0 0 0 0 0 0 0 0 0 0 0 0 0 0 0 0 0 0
0 0 0 0 0 0 0 0 0 0 0 0 0 0 0 0 0 0 0 0 0 0 0 3 8 9 6 5 3 1 0 0 0 0 0 0 0 0 0 0 0 0 0 0 0 0 0 0 0
0 0 0 0 0 0 0 0 0 0 0 0 0 0 0 0 0 0 0 0 0 0 0 2 6 9 9 8 7 5 2 0 0 0 0 0 0 0 0 0 0 0 0 0 0 0 0 0 0
0 0 0 0 0 0 0 0 0 0 0 0 0 0 0 0 0 0 0 0 0 0 0 1 3 5 7 8 9 8 4 1 1 0 0 0 0 0 0 0 0 0 0 0 0 0 0 0 0
0 0 0 0 0 0 0 0 0 0 0 0 0 0 0 0 0 0 0 0 0 0 1 1 1 2 4 5 7 8 5 3 2 1 0 0 0 0 0 0 0 0 0 0 0 0 0 0 0
0 0 0 0 0 0 0 0 0 0 0 0 0 0 0 1 1 0 0 0 0 1 2 2 1 1 3 5 6 6 4 3 3 2 1 0 0 0 0 0 0 0 0 0 0 0 0 0 0
0 0 0 0 0 0 0 0 0 0 0 0 0 0 0 1 1 0 0 1 0 1 3 3 2 1 2 4 5 4 3 2 2 3 2 1 0 0 0 0 0 0 0 0 0 0 0 0 0
0 0 0 0 0 0 0 0 0 0 0 0 0 0 0 1 1 0 0 0 0 1 2 3 2 2 3 3 4 4 3 2 2 2 2 1 0 0 0 0 0 0 0 0 0 0 0 0 0
0 0 0 0 0 0 0 0 0 0 0 0 0 0 0 0 0 0 0 0 0 0 1 1 1 2 3 3 2 2 3 3 2 1 2 1 0 0 0 0 0 0 0 0 0 0 0 0 0
0 0 0 0 0 0 0 0 0 0 0 0 0 0 0 0 0 0 0 0 0 0 0 0 0 2 3 2 1 1 1 2 1 1 2 2 1 0 0 0 0 0 0 0 0 0 0 0 0
0 0 0 0 0 0 0 0 0 0 0 0 0 0 0 0 0 0 0 0 0 0 0 0 0 1 2 2 1 0 0 0 1 1 2 2 1 0 0 0 0 0 0 0 0 0 0 0 0
0 0 0 0 0 0 0 0 0 0 0 0 0 0 0 0 0 0 0 0 0 0 0 0 0 0 1 1 1 1 1 0 0 1 1 1 0 0 0 0 0 0 0 0 0 0 0 0 0
0 0 0 0 0 0 0 0 0 0 0 0 0 0 0 0 0 0 0 0 0 0 0 0 0 0 0 0 0 1 2 1 0 0 0 0 0 0 0 0 0 0 0 0 0 0 0 0 0
0 0 0 0 0 0 0 0 0 0 0 0 0 0 0 0 0 0 0 0 0 0 0 0 0 0 0 0 0 0 1 0 0 0 0 0 0 0 1 1 0 0 0 0 0 0 0 0 0
0 0 0 0 0 0 0 0 0 0 0 0 0 0 0 0 0 0 0 0 0 0 0 0 0 0 0 0 0 0 0 0 0 1 0 0 0 1 1 1 0 0 0 0 0 0 0 0 0
0 0 0 0 0 0 0 0 0 0 0 0 0 0 0 0 0 0 0 0 0 0 0 0 0 0 0 0 0 0 0 0 0 0 0 0 1 1 1 1 0 0 0 0 0 0 0 0 0
0 0 0 0 0 0 0 0 0 0 0 0 0 0 0 0 0 0 0 0 0 0 0 0 0 0 0 0 0 0 0 0 0 0 0 0 0 0 0 0 0 0 0 0 0 0 0 0 0
0 0 0 0 0 0 0 0 0 0 0 0 0 0 0 0 0 0 0 0 0 0 0 0 0 0 0 0 0 0 0 0 0 0 1 0 0 0 0 0 0 0 0 0 0 0 0 0 0
0 0 0 0 0 0 0 0 0 0 0 0 0 0 0 0 0 0 0 0 0 0 0 0 0 0 0 0 0 0 0 0 0 0 0 0 0 0 0 0 0 0 0 0 0 0 0 0 0
0 0 0 0 0 0 0 0 0 0 0 0 0 0 0 0 0 0 0 0 0 0 0 0 0 0 0 0 0 0 0 0 0 0 0 0 0 0 0 0 0 0 0 0 0 0 0 0 0
0 0 0 0 0 0 0 0 0 0 0 0 0 0 0 0 0 0 0 0 0 0 0 0 0 0 0 0 0 0 0 0 0 0 0 0 0 0 0 0 0 0 0 0 0 0 0 0 0
0 0 0 0 0 0 0 0 0 0 0 0 0 0 0 0 0 0 0 0 0 0 0 0 0 0 0 0 0 0 0 0 0 0 0 0 0 0 0 0 0 0 0 0 0 0 0 0 0
0 0 0 0 0 0 0 0 0 0 0 0 0 0 0 0 0 0 0 0 0 0 0 0 0 0 0 0 0 0 0 0 0 0 0 0 0 0 0 0 0 0 0 0 0 0 0 0 0
0 0 0 0 0 0 0 0 0 0 0 0 0 0 0 0 0 0 0 0 0 0 0 0 0 0 0 0 0 0 0 0 0 0 0 0 0 0 0 0 0 0 0 0 0 0 0 0 0
0 0 0 0 0 0 0 0 0 0 0 0 0 0 0 0 0 0 0 0 0 0 0 0 0 0 0 0 0 0 0 0 0 0 0 0 0 0 0 0 0 0 0 0 0 0 0 0 0
0 0 0 0 0 0 0 0 0 0 0 0 0 0 0 0 0 0 0 0 0 0 0 0 0 0 0 0 0 0 0 0 0 0 0 0 0 0 0 0 0 0 0 0 0 0 0 0 0
Wind_Speed
1 4 4 3 6 6 3 3 1 3 4 2 3 5 5 3 1 1 1 7 10 10 7 10 13 12 12 11 10 10 10 10 10 10 10 10 10 10 10 10 9 8 7 7 6 6 7 7 7
2 4 3 5 7 4 3 2 2 2 4 3 4 5 5 4 3 4 4 5 11 10 7 8 13 12 11 11 10 10 9 9 9 9 9 9 9 9 9 8 8 7 7 6 6 6 6 6 7
4 2 4 5 4 3 0 1 1 3 3 2 4 5 4 2 3 4 5 9 10 8 7 8 14 12 11 10 9 9 9 8 8 8 8 8 7 7 7 7 7 6 6 6 5 5 5 5 6
3 4 5 6 3 1 2 1 3 4 3 5 4 4 4 2 4 5 10 11 10 8 6 8 14 13 11 10 9 9 8 7 7 7 7 7 6 6 6 6 6 6 5 5 4 4 4 4 5
4 4 7 5 5 5 2 1 4 4 3 3 4 4 3 4 5 10 11 11 10 8 7 7 14 13 12 11 10 10 9 8 7 7 7 6 6 6 5 5 5 5 5 5 4 3 3 4 4
4 5 6 4 6 6 5 4 3 5 4 3 4 4 2 1 6 10 10 9 8 9 8 7 14 14 13 12 11 10 9 8 8 7 6 6 6 5 5 4 4 4 4 4 4 4 3 3 4
4 5 4 2 4 6 7 5 3 4 3 3 4 5 1 2 5 9 8 7 6 7 6 6 7 10 13 13 12 11 10 9 9 8 7 6 5 5 5 4 3 2 2 2 3 4 4 4 4
4 5 4 3 3 5 7 5 3 3 2 3 4 6 5 6 5 6 6 5 5 5 6 6 6 6 6 8 12 13 12 11 10 9 8 7 6 6 6 5 4 3 1 0 1 2 3 4 4
4 7 3 1 1 3 5 5 4 3 4 3 2 2 4 9 8 6 4 3 5 6 5 5 5 5 5 5 9 10 11 11 11 9 10 8 3 2 3 4 5 4 3 2 1 1 2 4 6
5 4 4 3 2 1 3 5 6 6 7 7 6 6 6 10 8 7 5 6 7 8 7 5 6 5 4 6 5 4 4 5 5 4 5 4 3 2 3 4 7 7 5 4 3 3 2 4 3
4 4 3 1 0 0 2 6 9 7 7 7 6 4 7 6 3 2 3 4 6 6 6 7 6 6 5 4 3 2 2 3 4 5 5 4 3 2 2 1 3 3 3 1 2 3 2 2 1
4 1 1 2 3 4 5 5 10 14 8 8 9 11 12 11 9 8 7 5 4 4 5 6 7 6 6 5 3 3 3 3 4 5 6 4 3 3 3 2 2 2 1 1 1 1 1 1 1
3 2 4 7 9 10 13 12 10 14 12 15 20 21 17 14 11 10 10 10 8 6 6 5 6 7 6 6 5 4 5 5 5 4 5 6 5 4 4 3 3 3 2 2 2 2 2 2 2
3 6 7 8 8 9 16 13 11 12 12 18 20 17 15 14 13 13 13 12 11 9 8 7 5 6 6 6 6 6 5 5 4 5 6 7 5 5 4 4 4 3 3 3 3 3 2 2 2
3 6 8 9 6 3 9 16 14 11 12 18 17 14 15 13 13 12 11 10 10 9 9 9 6 4 5 7 7 6 5 5 6 6 7 8 7 6 5 4 4 4 4 4 3 3 2 2 2
5 6 5 7 9 6 12 10 13 11 13 16 14 13 13 12 12 11 10 10 10 10 10 9 9 8 6 4 6 5 5 6 6 6 6 9 9 8 6 5 5 4 3 3 3 2 2 2 2
8 4 3 6 11 7 11 8 10 11 14 15 13 12 12 12 13 12 11 10 10 10 10 10 9 9 8 6 5 6 6 7 6 6 6 8 10 9 7 6 5 4 3 3 3 3 3 3 3
2 2 3 4 6 11 13 10 9 11 14 13 12 12 12 13 12 12 11 10 9 9 9 9 9 9 9 6 4 3 5 6 6 7 7 8 8 9 8 6 5 4 3 3 3 3 3 2 3
2 3 3 3 4 9 11 9 7 9 13 14 14 13 13 13 11 11 11 11 10 10 10 9 9 9 8 5 4 3 3 4 5 7 8 8 8 8 7 6 5 4 4 4 4 3 3 2 2
4 4 2 2 5 7 7 7 5 7 10 10 11 12 14 16 16 15 13 11 11 10 10 9 9 9 8 6 5 4 4 4 4 5 6 8 8 8 7 7 5 5 4 3 4 3 2 2 2
3 4 1 0 4 5 3 3 7 5 6 11 12 10 12 13 15 15 15 12 11 10 10 9 9 9 8 8 6 5 3 3 2 3 4 7 8 9 8 8 7 6 6 5 5 4 5 3 2
1 1 2 1 3 3 3 1 5 8 9 15 16 14 14 14 14 13 14 13 11 10 8 8 8 8 8 8 6 7 4 4 4 3 3 4 5 6 7 7 8 7 6 6 5 5 4 4 3
3 3 1 2 4 4 7 3 5 7 10 16 16 15 15 14 13 13 12 12 11 9 8 7 7 7 7 7 7 6 5 4 3 2 2 2 3 4 5 6 7 7 6 7 7 7 6 5 4
3 2 5 6 5 5 4 3 5 5 10 15 16 16 15 14 14 12 11 11 10 8 7 6 6 6 7 7 7 7 7 6 4 3 1 0 1 1 3 4 4 5 5 7 7 7 8 7 6
8 5 4 5 6 1 3 3 3 5 7 10 14 15 14 12 12 13 14 14 12 11 9 7 6 6 7 7 7 7 7 7 6 5 3 3 2 1 1 1 2 3 4 5 6 7 7 7 8
4 5 5 3 2 1 3 2 4 4 7 8 9 11 12 12 11 12 13 13 12 12 10 8 7 6 7 7 7 7 7 6 5 6 5 5 3 3 3 2 1 1 3 4 5 5 7 7 8
3 3 2 6 3 2 3 3 4 4 9 11 12 13 13 13 12 12 13 13 13 12 11 9 7 7 7 7 6 7 7 7 6 6 6 4 4 4 5 4 3 3 2 0 3 3 5 6 6
4 3 5 5 4 1 3 3 5 9 12 12 13 13 13 13 12 11 11 11 11 11 10 10 9 8 7 7 6 6 6 6 5 5 6 5 5 5 4 4 4 3 3 3 2 1 1 3 4
5 5 6 5 3 4 0 4 4 6 8 9 11 11 11 11 10 9 9 9 10 11 11 11 10 9 8 8 7 7 7 7 6 6 6 5 4 4 4 4 4 3 3 2 2 2 2 2 3
4 3 3 4 2 2 2 5 5 4 6 6 9 10 10 9 8 8 8 8 8 9 10 10 10 9 9 8 8 8 8 8 8 8 7 6 6 6 5 4 4 3 2 2 2 2 2 3 3
Wind_Direction
259 119 107 67 52 49 40 340 317 38 51 31 70 83 91 89 151 212 98 133 133 142 149 152 152 151 149 148 145 141 138 135 132 129 129 130 130 129 129 127 124 121 117 116 121 129 131 129 127
150 127 79 59 74 62 344 321 3 52 132 146 68 66 66 56 61 97 128 139 139 142 143 149 154 154 154 155 152 150 147 142 137 133 130 127 126 124 124 123 122 120 118 117 118 127 132 130 124
145 106 79 65 78 128 87 1 102 97 115 80 65 52 64 68 122 143 154 142 140 143 142 158 158 159 161 163 161 159 154 150 146 141 137 131 127 123 121 119 117 114 112 112 113 120 125 126 121
112 56 52 62 42 263 244 178 132 118 63 51 79 58 53 70 151 150 142 146 146 147 148 166 163 166 168 171 172 169 164 161 157 153 151 144 139 133 126 122 117 110 104 100 101 113 119 116 113
66 76 54 40 359 331 319 199 140 110 73 53 79 82 36 359 111 132 144 153 154 154 159 174 170 173 175 177 179 175 173 173 172 169 167 162 154 145 135 126 117 110 99 87 76 81 101 103 97
62 66 65 26 344 343 7 18 80 87 94 98 98 94 41 87 130 146 153 156 160 162 167 177 179 180 183 184 185 181 182 184 185 183 182 177 172 166 156 142 125 113 97 81 66 56 68 82 85
89 79 79 34 354 359 356 359 69 98 105 141 126 101 106 191 176 152 153 149 156 169 173 185 185 186 189 191 192 190 189 192 192 192 193 191 192 192 189 176 161 140 108 78 61 50 51 60 71
104 92 72 31 17 341 331 5 60 82 100 123 117 136 185 204 168 139 138 145 162 177 187 195 196 191 191 196 200 198 197 197 198 200 202 206 209 213 215 204 200 203 211 232 45 43 44 48 52
80 74 98 155 73 316 336 20 21 32 71 53 56 160 194 145 138 130 133 157 180 195 201 206 208 206 200 201 209 205 205 204 203 204 207 209 213 228 237 223 220 232 247 263 288 352 22 45 39
70 107 182 195 185 195 20 33 15 36 28 16 17 30 92 129 148 162 178 192 201 209 207 207 210 212 208 212 213 210 207 204 200 191 202 193 185 209 224 238 235 240 248 264 278 290 8 53 43
80 143 187 224 231 143 61 57 30 43 23 351 340 32 79 101 121 195 232 228 225 227 222 213 212 212 209 216 213 206 205 202 199 194 192 182 181 204 221 217 253 263 266 286 333 354 34 53 36
89 108 89 5 31 43 43 59 52 41 11 352 40 60 57 53 35 16 357 335 311 279 250 234 214 211 214 215 221 211 206 207 206 199 189 179 183 198 208 211 218 226 227 228 235 254 278 273 258
78 85 45 30 57 65 64 57 69 34 23 46 56 53 49 46 36 28 27 22 8 346 315 275 231 215 212 211 219 218 215 214 211 203 196 190 193 201 206 215 215 217 211 216 228 242 259 263 255
72 79 55 32 49 64 71 47 45 16 27 50 51 51 46 41 32 26 20 13 7 2 351 332 286 237 217 214 217 219 216 215 207 207 204 200 201 201 203 217 221 218 209 210 216 232 251 265 256
85 87 52 27 21 66 82 46 24 9 38 48 42 41 39 33 28 23 13 7 360 356 356 356 344 322 254 229 224 223 217 211 213 214 206 204 203 202 203 213 224 222 204 202 208 227 233 258 250
47 59 48 12 9 32 79 61 13 12 40 43 33 26 26 22 21 14 7 2 358 355 354 354 357 351 327 279 240 229 221 217 220 215 208 207 207 203 202 211 226 220 193 188 198 208 224 242 234
34 57 46 11 11 41 78 79 22 21 40 39 27 18 15 9 8 3 360 357 352 349 348 348 350 349 339 317 268 233 220 219 222 216 213 210 208 205 203 212 223 213 195 193 210 197 194 212 214
20 65 62 41 29 66 83 80 41 30 39 34 21 12 6 0 353 349 349 350 345 341 342 343 344 345 338 326 301 256 230 225 218 214 214 209 206 203 201 208 213 203 201 202 197 204 197 203 194
103 107 96 62 76 80 88 80 46 32 32 24 13 3 356 346 337 341 344 344 342 343 344 341 342 341 341 335 328 303 264 241 227 222 212 203 200 199 199 206 202 192 203 212 195 182 195 197 139
79 96 76 48 83 103 108 85 49 39 34 19 5 355 348 342 340 340 340 340 339 338 338 337 337 334 334 327 311 286 278 267 242 227 212 200 194 193 198 199 196 186 192 199 183 171 170 181 162
57 112 104 73 72 83 119 66 17 359 5 5 4 353 347 341 335 333 332 331 332 333 333 331 329 328 328 327 318 308 289 283 270 230 215 209 196 189 186 189 181 178 176 181 179 180 179 183 195
351 7 326 239 107 44 4 294 0 331 340 356 355 350 344 337 333 330 328 327 325 323 321 320 324 325 329 331 328 324 311 293 283 274 247 218 203 194 185 181 174 170 167 171 179 183 184 177 191
291 323 351 109 114 68 21 51 328 335 350 346 343 342 339 336 334 328 326 322 319 318 320 320 323 329 333 336 337 331 323 307 297 290 254 214 191 186 181 179 176 174 174 177 180 184 188 188 189
324 59 61 54 71 54 339 30 343 343 334 330 335 339 338 338 338 335 335 332 327 327 326 324 330 338 344 347 350 348 347 345 346 353 358 87 122 148 166 175 183 183 181 185 190 191 193 192 190
34 73 48 25 33 13 323 59 316 301 323 326 331 335 338 341 345 347 348 345 344 344 341 340 343 350 354 360 4 1 3 8 15 10 18 33 42 48 74 154 177 186 192 195 193 194 197 195 193
26 85 127 156 160 301 3 15 284 287 323 331 335 336 342 348 348 349 347 347 348 349 346 349 354 1 4 8 7 9 17 21 23 24 29 33 31 29 36 59 94 167 199 203 200 199 200 194 193
53 55 115 117 106 72 350 324 317 331 342 344 344 343 342 342 344 350 348 349 349 349 353 358 5 12 8 7 9 14 18 24 26 26 32 33 27 32 39 45 54 53 54 148 202 200 195 185 184
79 96 72 83 118 96 338 329 314 322 330 333 334 336 334 336 339 341 342 345 349 351 359 7 13 11 7 7 12 16 15 17 20 25 27 25 22 27 36 40 46 48 45 42 49 80 149 158 163
18 50 75 79 97 132 216 293 257 283 303 314 318 322 324 327 330 330 334 343 351 358 4 10 10 12 10 8 10 19 19 19 25 28 22 19 20 23 29 38 44 47 48 46 56 58 62 100 116
92 75 114 121 106 116 145 271 279 288 295 304 311 318 322 325 327 328 333 343 354 360 2 8 10 14 12 13 20 25 23 26 30 29 25 25 30 30 31 34 39 35 35 52 79 80 74 81 89